Theta_e
341 342 343 343 343 343 342 340 339 341 339 339 340 342 344 344 344 338 330 330 333 336 339 342 345 348 349 349 348 346 344 341 341 340 340 340 341 342 343 345 345 344 341
341 340 342 342 342 342 342 342 340 341 342 338 337 339 342 343 343 340 340 342 343 343 344 347 349 350 350 350 348 342 342 344 345 343 341 346 347 347 347 347 344 344 344
339 341 341 341 341 342 341 340 341 342 343 343 341 338 341 343 343 344 344 344 344 344 345 348 350 351 351 351 347 345 345 346 347 346 341 345 347 346 344 345 347 345 344
340 341 342 340 341 343 342 342 342 343 342 343 343 343 343 344 344 345 345 344 344 345 344 349 351 352 352 352 350 348 347 348 348 348 348 346 347 347 345 344 344 345 345
342 343 342 340 342 343 343 343 343 341 342 344 343 343 344 344 345 345 345 346 346 347 348 350 351 353 353 353 351 351 349 348 348 347 349 350 349 347 346 344 344 344 344
340 343 342 341 342 342 343 343 343 343 343 342 343 343 344 344 344 344 344 345 346 349 350 352 352 352 353 352 352 350 348 348 347 347 348 350 348 343 339 343 343 344 344
341 344 342 342 342 342 342 343 342 343 344 341 342 343 343 343 343 343 343 343 344 346 350 352 351 352 351 350 350 346 347 347 347 346 348 350 342 334 334 334 343 343 343
343 341 343 341 341 342 342 342 342 342 345 344 341 342 345 344 342 342 342 344 346 348 349 350 351 350 349 350 348 345 347 349 348 346 346 350 343 334 332 333 340 343 344
341 343 343 342 340 342 341 341 342 342 344 344 343 344 346 345 342 342 343 345 347 349 349 348 351 351 349 347 349 347 347 348 347 346 346 346 349 334 331 332 334 341 344
340 342 343 341 341 342 341 341 343 344 344 344 345 346 346 345 350 347 345 346 347 348 348 348 349 352 350 346 346 349 346 346 347 344 345 343 351 336 332 331 332 340 344
341 341 341 342 341 343 343 342 344 345 346 347 348 347 346 347 347 346 350 350 350 348 348 349 350 352 346 344 342 347 349 348 345 344 344 340 351 345 334 332 332 338 345
341 341 341 342 343 343 341 343 344 345 346 348 347 347 346 346 346 347 349 347 349 349 349 350 351 347 346 344 344 345 348 348 346 344 344 341 344 351 337 334 334 342 344
342 342 342 341 344 344 340 344 344 343 345 346 348 347 348 348 347 345 345 345 351 351 350 349 347 346 348 347 345 349 348 348 347 346 344 342 337 350 348 336 338 342 343
342 342 341 342 343 344 342 343 344 343 342 344 345 347 346 348 348 348 347 350 350 350 347 347 345 346 347 347 346 348 349 347 347 345 341 340 336 348 351 342 337 342 345
342 342 342 343 342 344 344 342 342 342 340 341 342 344 343 344 345 346 346 346 349 350 349 349 348 345 342 345 341 345 347 346 346 346 340 330 335 343 350 350 341 339 343
346 346 343 341 342 340 340 342 344 344 343 340 339 340 343 341 341 343 344 344 343 346 348 350 348 341 337 339 345 343 343 346 347 343 330 327 332 335 348 350 349 340 340
344 346 344 343 344 344 343 341 340 342 342 342 341 337 338 342 341 339 339 339 341 340 347 346 339 338 334 337 340 341 344 344 335 329 328 329 330 335 347 349 350 350 341
345 346 346 345 346 346 346 346 342 342 342 342 339 338 339 340 340 340 339 340 342 343 346 349 347 346 339 336 337 338 334 334 332 332 329 331 330 335 343 346 345 348 351
344 343 344 345 345 344 344 346 343 342 342 343 343 343 347 345 344 343 342 345 346 347 350 350 351 346 346 346 346 344 340 334 339 337 336 333 330 329 331 334 342 343 348
343 343 344 345 345 345 345 344 342 342 341 342 342 343 344 346 344 344 345 345 344 347 350 347 352 351 351 347 348 349 348 346 335 336 338 333 328 327 327 334 335 337 342
340 341 345 343 342 344 345 346 345 345 344 344 344 343 343 342 343 344 344 344 341 343 349 349 349 350 348 350 351 348 347 345 343 337 330 338 338 325 329 328 338 332 337
340 341 341 343 344 344 344 342 344 346 346 345 345 345 346 345 348 347 347 348 348 347 346 349 351 351 348 346 347 344 343 344 342 341 328 333 339 329 332 328 340 340 331
342 342 344 343 343 343 342 343 344 345 345 343 342 341 341 347 342 344 348 348 346 347 348 346 344 343 343 342 342 343 346 346 346 345 344 344 340 333 336 333 332 330 338
341 341 341 343 344 345 345 344 344 344 344 343 344 344 343 343 344 343 342 343 343 344 343 344 344 344 345 345 347 348 348 347 345 349 350 347 348 347 340 340 340 339 334
335 336 340 342 342 343 343 343 343 343 344 344 344 345 345 345 344 344 344 344 344 344 346 346 347 346 346 346 347 349 350 353 351 351 353 351 349 351 348 341 341 342 342
335 336 335 334 335 335 336 337 339 340 341 341 341 343 344 345 346 345 345 345 345 346 347 348 348 348 348 347 348 348 348 349 351 351 351 352 352 352 351 351 349 346 347
Wind_Speed
15 12 10 10 10 8 9 8 9 11 8 7 9 10 12 14 15 15 14 13 13 14 15 15 15 17 16 17 17 17 17 17 17 18 16 16 15 15 15 15 14 9 6
12 10 10 9 8 8 7 7 8 10 11 9 7 7 10 12 13 14 14 14 14 14 14 13 14 14 15 16 15 15 17 19 20 20 17 14 12 12 11 12 14 12 8
10 10 8 7 6 7 4 5 7 8 9 10 10 8 9 11 12 13 12 12 11 11 11 12 12 13 15 17 16 17 18 20 21 21 17 15 14 15 12 9 6 8 9
10 8 5 6 4 5 6 5 6 7 9 9 8 8 9 9 9 10 10 10 10 10 11 11 11 12 15 17 18 17 16 19 21 23 23 17 15 14 14 10 6 2 8
9 8 6 8 7 4 5 6 7 7 8 9 8 6 7 7 9 10 10 11 10 10 10 10 10 13 15 16 17 17 17 18 21 24 25 22 18 16 13 11 6 4 3
8 7 6 8 6 3 5 6 7 6 8 7 6 5 6 7 7 7 7 7 8 9 9 9 12 14 16 16 16 16 16 18 21 24 26 25 20 18 13 8 4 3 4
8 5 6 7 5 3 3 6 6 6 7 5 4 3 3 4 6 5 6 7 7 6 6 9 12 15 16 15 17 17 17 19 22 24 28 30 27 21 14 4 1 5 7
9 6 5 4 3 2 1 4 3 5 7 6 2 3 2 2 3 3 5 8 9 6 7 9 11 14 16 18 19 17 18 21 23 24 28 31 33 25 16 7 6 7 9
11 8 6 3 3 3 2 1 3 5 6 6 5 3 2 2 4 4 5 7 8 8 8 9 10 12 17 19 18 19 19 21 24 24 26 30 35 28 20 11 9 10 13
13 10 9 7 6 5 4 3 1 4 6 5 5 4 4 4 2 4 5 6 5 5 6 10 8 10 17 20 19 17 20 20 23 24 25 29 33 31 22 16 12 12 15
13 13 11 8 7 7 5 6 2 3 5 6 6 5 5 6 7 6 3 4 5 5 3 6 8 11 17 22 21 17 18 20 22 23 23 27 29 32 23 17 13 12 15
11 13 12 10 8 6 7 8 5 2 3 5 7 7 7 5 5 6 5 5 6 5 4 5 7 13 18 21 21 16 16 19 20 21 22 24 26 28 25 16 13 10 11
12 12 11 14 9 7 8 9 7 3 2 1 3 5 7 8 9 7 6 6 5 4 4 5 9 15 17 20 21 17 16 17 18 20 22 21 23 23 25 18 11 9 9
10 10 11 13 10 9 9 11 8 5 4 3 2 1 3 4 5 6 6 6 5 4 7 6 12 15 17 18 17 16 15 15 17 20 21 19 19 19 21 20 12 7 7
10 9 10 13 13 11 11 11 11 10 8 7 7 5 3 2 2 3 4 6 6 8 9 9 11 15 18 18 16 14 14 14 17 20 21 17 15 15 16 19 16 7 3
11 10 10 11 12 12 12 13 12 12 12 11 10 10 8 7 6 6 8 8 9 8 10 12 13 19 20 16 13 13 14 16 17 19 19 15 12 13 13 15 17 12 4
11 11 10 10 11 10 10 11 13 13 12 13 13 12 13 12 10 10 11 12 11 11 10 12 16 15 15 14 12 12 14 15 16 16 13 12 12 11 9 12 13 14 10
11 10 11 13 14 14 14 12 11 13 14 13 13 13 13 14 13 13 12 12 10 10 8 11 12 12 12 12 13 13 14 13 14 13 9 12 12 11 10 9 11 10 10
12 10 12 11 12 13 14 13 12 12 12 12 12 12 10 11 11 10 10 9 8 8 9 11 11 13 13 13 14 14 13 11 10 13 11 9 12 13 13 11 10 10 8
13 11 12 11 9 8 9 9 11 11 12 11 10 11 12 11 9 9 9 10 10 10 11 11 11 12 13 14 14 14 14 13 14 13 14 12 13 13 14 13 12 10 9
16 14 15 14 13 12 11 10 11 12 12 12 11 11 10 11 11 12 12 12 12 14 12 12 13 13 13 13 14 17 16 18 18 19 19 17 16 17 16 15 13 11 11
18 16 16 16 16 15 14 15 15 16 16 14 14 13 13 13 14 14 15 15 15 15 15 14 13 14 18 18 17 19 19 17 19 16 25 23 18 18 15 15 12 13 11
17 17 16 17 18 19 19 16 16 17 18 17 16 16 16 13 16 17 17 17 17 17 18 19 22 21 22 22 24 25 22 23 22 22 24 23 17 17 15 14 14 16 13
12 12 13 15 17 18 19 18 16 16 16 17 17 17 17 17 19 18 19 20 20 21 21 22 24 25 25 26 25 24 25 25 26 20 19 21 15 17 17 16 15 15 14
7 6 6 6 6 9 10 10 11 12 15 18 19 20 20 21 23 23 22 23 24 24 23 24 25 25 24 24 23 24 20 19 22 21 17 23 19 17 20 22 18 16 14
7 7 6 6 7 5 3 4 6 7 9 9 11 14 16 19 20 21 22 23 24 23 25 24 25 25 25 25 24 26 26 22 23 23 17 16 17 18 18 15 17 20 21
Wind_Direction
119 118 122 120 109 95 83 66 69 55 66 74 74 74 69 64 60 62 66 68 68 67 65 62 56 48 37 27 17 10 6 3 358 349 337 328 320 310 297 286 280 261 251
126 124 129 121 105 109 84 66 52 50 60 76 81 71 67 68 68 74 71 66 65 64 64 59 50 36 24 14 6 7 10 9 11 6 353 350 350 346 326 295 275 264 243
132 128 134 134 113 117 81 58 55 51 50 62 68 72 76 80 78 74 68 62 58 57 54 55 39 26 19 13 9 11 15 17 14 15 8 1 359 360 3 360 317 262 234
138 129 137 156 125 97 76 64 40 39 43 48 55 70 82 83 78 75 68 64 61 59 56 54 42 32 20 16 12 12 15 18 15 16 15 8 358 350 351 4 356 309 220
144 141 132 147 140 107 80 66 53 55 46 33 42 66 94 86 83 76 78 72 66 62 61 45 31 26 20 14 12 12 13 17 16 14 13 9 358 351 335 341 15 55 148
155 154 140 144 140 125 98 63 61 54 32 35 52 92 93 93 84 80 66 55 59 75 59 41 38 30 17 8 8 13 16 18 19 15 12 11 3 348 336 318 360 79 139
171 160 149 148 127 129 98 52 58 39 32 32 72 80 66 88 85 65 53 45 51 44 57 45 40 25 17 22 21 22 24 20 19 16 15 12 9 5 4 354 151 99 132
184 171 162 170 165 149 113 50 45 28 40 49 85 83 74 78 47 43 43 48 55 66 50 42 35 33 30 28 25 25 26 20 17 16 16 15 14 15 21 45 141 118 125
203 202 203 212 230 216 208 119 32 32 48 56 75 77 54 67 89 58 64 50 57 56 45 32 29 30 26 22 21 16 20 19 16 15 15 17 17 20 30 56 116 129 123
211 210 215 231 232 227 212 194 47 45 53 64 67 71 68 68 65 100 73 55 54 50 28 27 23 13 11 15 17 11 17 17 13 14 15 17 21 23 33 57 98 127 134
208 207 211 219 222 232 220 192 181 84 62 72 80 68 60 56 64 93 76 40 18 19 21 24 15 4 7 10 10 7 12 14 13 13 15 17 22 26 33 56 84 120 140
204 204 211 210 200 218 210 195 185 160 86 73 71 67 66 74 54 58 57 45 48 42 47 39 16 1 7 10 14 9 7 10 9 12 14 16 20 26 32 47 75 107 130
194 196 199 193 195 212 203 199 202 191 195 78 67 68 72 76 72 68 56 53 61 67 49 17 354 357 4 11 12 10 5 5 7 9 11 12 17 23 30 39 61 88 132
198 201 196 195 202 215 210 208 220 230 235 235 258 23 48 58 66 64 53 36 360 346 338 335 342 347 352 359 5 4 2 3 1 1 3 7 12 21 26 34 45 79 113
207 209 205 203 210 221 221 218 227 238 248 251 251 261 283 313 341 2 4 360 359 334 332 329 339 340 343 340 343 345 347 352 350 351 353 359 8 19 23 29 37 48 100
210 215 210 208 216 220 221 226 232 242 246 247 251 251 257 265 279 292 304 315 318 314 312 310 321 326 329 328 331 332 326 332 340 344 346 358 9 14 23 26 29 32 38
207 210 214 220 223 225 226 227 234 236 247 246 247 252 253 258 268 280 287 294 299 303 303 310 321 331 336 339 340 337 335 336 340 350 353 8 8 12 16 17 19 22 26
212 218 228 233 240 241 240 241 239 241 242 245 246 248 253 256 263 271 278 282 286 294 303 313 321 331 341 345 349 348 342 341 347 354 6 9 8 5 355 352 356 0 14
210 229 231 245 241 239 238 239 236 242 242 242 245 237 248 254 259 264 266 270 277 287 305 313 313 325 333 337 338 341 344 342 358 351 348 346 347 351 343 329 322 334 337
226 233 229 231 240 228 228 241 236 241 246 251 249 242 248 248 257 261 259 263 271 280 299 304 305 311 317 325 329 333 335 333 328 336 332 326 327 331 332 332 316 297 311
232 233 234 237 244 243 240 237 238 242 246 249 250 254 256 259 263 266 273 276 276 279 286 294 298 300 307 313 314 321 322 322 324 319 324 327 322 325 325 321 332 305 282
230 232 234 237 241 244 248 247 249 248 252 259 260 260 259 258 259 261 268 275 275 278 280 281 289 294 305 309 310 313 314 314 313 311 316 316 318 320 319 310 299 321 294
221 230 236 240 242 246 248 247 248 251 257 264 265 268 267 271 268 265 268 272 277 276 276 283 289 290 294 302 304 306 307 306 307 308 312 312 316 317 317 307 289 297 303
191 206 223 234 243 242 239 240 241 247 257 261 263 267 270 270 271 273 270 271 273 276 278 279 282 286 290 294 296 299 300 303 304 309 304 306 311 306 309 301 294 297 283
188 198 189 198 220 219 236 246 243 244 250 258 265 268 267 269 273 275 274 274 274 275 276 276 277 282 285 287 289 291 295 296 297 300 294 297 307 300 303 302 295 296 290
186 190 174 173 173 179 175 278 282 268 260 256 265 265 261 263 266 269 270 272 275 276 278 281 284 284 285 286 284 285 288 285 289 293 297 282 294 300 302 294 297 298 292